TimeEST,TemperatureF,Dew PointF,Humidity,Sea Level PressureIn,VisibilityMPH,Wind Direction,Wind SpeedMPH,Gust SpeedMPH,PrecipitationIn,Events,Conditions,WindDirDegrees,DateUTC
12:53 AM,72.0,57.0,59,30.20,10.0,ESE,10.4,-,N/A,,Mostly Cloudy,120,2013-01-01 05:53:00
1:53 AM,72.0,59.0,64,30.19,10.0,ESE,6.9,-,N/A,,Mostly Cloudy,120,2013-01-01 06:53:00
2:53 AM,71.1,55.9,59,30.19,10.0,East,6.9,-,N/A,,Overcast,90,2013-01-01 07:53:00
3:53 AM,72.0,55.9,57,30.19,10.0,ESE,6.9,-,N/A,,Overcast,110,2013-01-01 08:53:00
4:53 AM,72.0,57.0,59,30.17,10.0,SE,9.2,-,N/A,,Overcast,130,2013-01-01 09:53:00
5:53 AM,72.0,55.0,55,30.16,10.0,ESE,13.8,19.6,N/A,,Overcast,120,2013-01-01 10:53:00
6:53 AM,71.1,55.0,57,30.16,10.0,SE,10.4,-,N/A,,Scattered Clouds,130,2013-01-01 11:53:00
7:53 AM,72.0,55.9,57,30.16,10.0,SE,5.8,-,N/A,,Scattered Clouds,130,2013-01-01 12:53:00
8:53 AM,73.9,59.0,59,30.17,10.0,SE,9.2,-,N/A,,Scattered Clouds,130,2013-01-01 13:53:00
9:53 AM,77.0,57.0,50,30.19,10.0,SE,13.8,20.7,N/A,,Scattered Clouds,130,2013-01-01 14:53:00
10:53 AM,77.0,57.9,52,30.17,10.0,SE,11.5,21.9,N/A,,Scattered Clouds,140,2013-01-01 15:53:00
11:53 AM,79.0,57.9,48,30.15,10.0,SSE,15.0,26.5,N/A,,Scattered Clouds,150,2013-01-01 16:53:00
12:53 PM,80.1,59.0,48,30.11,10.0,South,16.1,21.9,N/A,,Scattered Clouds,180,2013-01-01 17:53:00
1:53 PM,78.1,59.0,52,30.09,10.0,SE,17.3,21.9,N/A,,Mostly Cloudy,140,2013-01-01 18:53:00
2:53 PM,79.0,60.1,52,30.08,10.0,South,9.2,-,N/A,,Overcast,170,2013-01-01 19:53:00
3:53 PM,78.1,60.1,54,30.07,10.0,SSE,11.5,-,N/A,,Mostly Cloudy,160,2013-01-01 20:53:00
4:53 PM,75.9,61.0,60,30.07,10.0,SSE,8.1,-,N/A,,Mostly Cloudy,160,2013-01-01 21:53:00
5:53 PM,75.0,61.0,62,30.07,10.0,South,4.6,-,N/A,,Mostly Cloudy,170,2013-01-01 22:53:00
6:53 PM,75.0,59.0,57,30.08,10.0,South,5.8,-,N/A,,Mostly Cloudy,170,2013-01-01 23:53:00
7:53 PM,73.0,59.0,61,30.09,10.0,Calm,Calm,-,N/A,,Mostly Cloudy,0,2013-01-02 00:53:00
8:53 PM,73.0,60.1,64,30.09,10.0,Calm,Calm,-,N/A,,Mostly Cloudy,0,2013-01-02 01:53:00
9:53 PM,70.0,60.1,71,30.10,10.0,Calm,Calm,-,N/A,,Mostly Cloudy,0,2013-01-02 02:53:00
10:53 PM,69.1,60.1,73,30.09,10.0,Calm,Calm,-,N/A,,Scattered Clouds,0,2013-01-02 03:53:00
11:53 PM,66.9,60.1,79,30.07,10.0,ESE,3.5,-,N/A,,Clear,110,2013-01-02 04:53:00